Meteosat 12

operational
NORAD ID: 54743 Int'l Des: 2022-170 Owner: EUMET Country: I-EUM
HEOCIRCULARGSO

Über Meteosat 12

Beschreibung wird geladen...

Live-Position

3D-Globus wird geladen...

Nächste Überflüge

Höhenverlauf

Altitude vs Time

uPlot chart will show altitude changes over time

Zweizeiliger Elementsatz

1 54743U 22170C 26062.08722659 -.00000022 00000-0 00000+0 0 9994
2 54743 0.7443 28.9468 0001909 281.6757 241.3450 1.00274625 11913
Epoch: 3. März 2026 • Age: 30 hours

Aktueller Status

Höhe 35781.1 km
Geschwindigkeit 3.08 km/s
Subsatellitenpunkt -0.48°S, 0.28°W
Startdatum 13. Dez. 2022
Alter 3.2 years
Typ weather

Technische Details

Klassifizierung Payload
Masse 3760.00 kg
Trockenmasse 2500.00 kg
Gesamtmasse 3760.00 kg
Länge 5.20 m
Durchmesser 2.30 m
Spannweite 10.00 m
Form Box + 2 pan
Hersteller THALES
Bus-Typ MTG
Phasenstatus In Orbit
Besitzer/Staat EUMET/I-EUM

Große Konstellationen

Loading constellations...